{"data":{"norad_id":57107,"epoch":"2026-09-20T11:07:00.842880Z","epoch_age_seconds":124111,"freshness":"FRESH","line1":"1 57107U 23090G   26263.46320420  .00000332  00000+0  21599-4 0  9991","line2":"2 57107  43.0031 261.3030 0001648 267.5774  92.4888 15.27576746180126","mean_motion":15.27576746,"eccentricity":0.0001648,"inclination_deg":43.0031,"raan_deg":261.303,"arg_perigee_deg":267.5774,"mean_anomaly_deg":92.4888,"bstar":2.1599e-5,"rev_number":18012,"period_min":94.266949517965,"perigee_km":481.92811462919,"apogee_km":484.18956477795,"semimajor_km":6861.1958397036,"source":"CELESTRAK","updated_at":"2026-09-21T09:00:33.559156Z"}}